Miscellaneous Local Product
Issued by NWS Hastings, NE

Home | Current Version | Previous Version | Graphics & Text | Print | Product List | Glossary On
Versions: 1 2 3 4 5 6 7 8 9 10 11 12 13 14 15 16 17 18 19 20 21 22 23 24 25 26 27 28 29 30 31 32 33 34 35 36 37 38 39 40 41 42 43 44 45 46 47 48 49 50
000
AXUS43 KGID 241802
MISGRI

GID CWA HOURLY WEATHER ROUNDUP
NATIONAL WEATHER SERVICE HASTINGS NE
100 PM CDT FRI APR 24 2015

NOTE: "FAIR" INDICATES FEW OR NO CLOUDS BELOW 12,000 FEET WITH NO
SIGNIFICANT WEATHER AND/OR OBSTRUCTIONS TO VISIBILITY.

...SOUTH CENTRAL NEBRASKA...

CITY           SKY/WX    TMP DP  RH WIND       PRES   REMARKS
GRAND ISLAND   CLOUDY    61  55  81 S9        29.65F
HASTINGS       CLOUDY    60  55  83 S9        29.65F
KEARNEY        CLOUDY    61  55  82 S10       29.65F
ORD            MOSUNNY   67  54  63 SW12G20   29.61F
YORK           CLOUDY    61  55  82 S12       29.66F
AURORA         CLOUDY    60  56  86 S9        29.65F
LEXINGTON      CLOUDY    64  55  71 S7        29.63F
HOLDREGE       CLOUDY    59  55  89 S3        29.64F
HEBRON         CLOUDY    60  54  78 S7        29.67F

...NEBRASKA PANHANDLE...

CITY           SKY/WX    TMP DP  RH WIND       PRES   REMARKS
CHADRON        MOSUNNY   66  45  46 W6        29.60F
ALLIANCE       MOSUNNY   64  40  41 W7        29.61F
SCOTTSBLUFF    SUNNY     68  37  32 W7        29.63F
SIDNEY         MOSUNNY   67  38  34 NW15G23   29.65F

...WESTERN AND NORTH CENTRAL NEBRASKA...

CITY           SKY/WX    TMP DP  RH WIND       PRES   REMARKS
VALENTINE      MOSUNNY   72  40  31 VRB6      29.56F
AINSWORTH      SUNNY     73  41  32 W9        29.57F
ONEILL         SUNNY     72  52  49 SW15      29.59F
BROKEN BOW     PTSUNNY   65  54  67 S13       29.62F
IMPERIAL       PTSUNNY   64  52  64 N7        29.63F
NORTH PLATTE   NOT AVBL
MCCOOK         CLOUDY    66  53  63 E6        29.62F

...EASTERN NEBRASKA...

CITY           SKY/WX    TMP DP  RH WIND       PRES   REMARKS
NORFOLK        SUNNY     68  54  60 S17       29.63F
SO SIOUX CITY  SUNNY     70  49  47 S13       29.65F
TEKAMAH        LGT RAIN  68  53  58 S16G23    29.67F
COLUMBUS       CLOUDY    63  52  67 S13G18    29.67F
ALBION         CLOUDY    63  53  70 SW12G22   29.64F
OMAHA EPPLEY   PTSUNNY   63  51  65 S15       29.69F
OFFUTT AFB     CLOUDY    64  53  66 S13       29.68F
MILLARD        CLOUDY    63  53  69 S9        29.69F
LINCOLN        CLOUDY    64  54  69 S10       29.67F
NEBRASKA CITY  CLOUDY    64  47  54 S15       29.70F
BEATRICE       CLOUDY    61  53  75 S9        29.68F
FALLS CITY     CLOUDY    59  49  69 S16       29.72F

...NORTHERN KANSAS...

CITY           SKY/WX    TMP DP  RH WIND       PRES   REMARKS
GOODLAND       MOSUNNY   67  50  54 SE6       29.62F
HILL CITY      CLOUDY    66  57  72 E3        29.60F
NORTON         CLOUDY    64  52  63 CALM      29.61F
BELOIT         CLOUDY    63  57  82 SE8       29.64F
HAYS           CLOUDY    68  54  60 SE17      29.59F
RUSSELL        PTSUNNY   69  59  70 SE12      29.59F
CONCORDIA      CLOUDY    62  56  80 SE14      29.65F
SALINA         CLOUDY    63  58  83 SE10      29.65F HAZE
TOPEKA         CLOUDY    58  54  86 SE12      29.74F



USA.gov is the U.S. government's official web portal to all federal, state and local government web resources and services.